Wind_Speed
4 5 6 6 6 7 8 8 9 10 11 13 15 17 19 21 23 24 26 29 31 33 36 37 39 41 42 44 45 45 46 46 47 47 48 48 48 48 48 49 49 48 48 47
5 6 7 7 8 9 10 10 11 12 13 15 17 19 21 22 24 26 28 30 32 34 37 39 40 42 43 45 45 46 46 46 47 47 47 47 46 46 47 47 46 46 46 46
5 7 8 8 10 11 12 12 13 14 15 17 18 20 22 24 26 28 30 32 35 37 38 40 41 42 44 45 46 46 47 47 47 47 47 47 47 46 46 46 46 46 45 45
5 7 7 8 9 11 12 14 16 17 19 21 22 24 25 27 28 30 32 34 35 37 39 41 42 43 44 45 46 46 47 47 47 47 47 47 47 47 47 46 46 45 45 45
5 6 7 9 11 13 14 15 18 20 22 23 25 27 29 30 32 33 35 36 38 39 40 41 43 44 45 46 47 47 47 48 48 48 48 48 47 47 47 47 46 45 45 45
4 5 7 8 11 12 14 15 18 21 23 24 26 28 30 32 34 36 37 38 40 41 42 43 44 45 46 46 47 47 48 48 48 48 48 48 48 48 47 47 46 46 46 46
3 4 6 8 10 12 13 15 17 20 23 25 27 28 30 32 35 37 39 40 41 42 43 44 45 45 46 46 47 47 48 48 48 48 48 48 48 47 47 46 46 46 46 46
4 4 6 8 10 12 14 16 18 20 23 25 27 29 30 32 35 37 38 40 41 43 44 44 45 46 46 46 47 47 47 47 47 48 48 48 47 47 46 46 46 46 45 45
6 7 8 9 11 12 15 17 19 21 24 26 28 30 32 34 36 38 39 40 41 42 44 45 46 46 46 46 46 46 46 47 47 47 47 47 46 46 46 46 45 45 44 44
9 10 11 12 14 15 16 18 20 22 24 27 29 31 33 35 37 39 40 41 42 43 44 45 46 46 47 46 46 46 46 46 46 46 46 46 46 45 45 45 44 44 44 43
11 12 14 15 16 18 19 21 22 24 26 28 31 33 35 36 38 40 41 42 43 43 43 44 45 45 46 46 46 46 46 45 45 45 45 45 45 45 45 44 43 43 43 43
14 15 16 18 19 21 22 24 26 28 30 31 32 34 36 38 39 41 42 43 44 44 44 45 45 45 46 46 46 46 45 45 44 44 44 44 44 44 44 44 44 43 42 42
17 18 20 21 23 24 25 27 29 31 32 34 35 37 38 39 40 41 43 44 45 46 46 46 46 46 46 46 46 46 45 45 44 44 44 44 44 44 44 44 43 42 42 41
20 22 23 24 26 27 29 30 32 34 35 37 38 40 41 42 42 43 44 45 45 46 46 47 47 46 46 46 45 45 45 46 46 45 44 44 44 44 44 43 42 42 41 41
23 24 26 28 29 31 32 34 35 37 38 40 42 43 43 44 44 45 45 45 45 45 45 46 46 46 46 46 45 45 45 44 45 45 45 44 44 44 44 43 43 42 41 40
26 27 29 31 32 34 35 37 38 40 42 44 45 45 45 45 45 46 46 46 45 44 44 44 45 45 45 45 45 45 44 44 45 45 45 44 44 44 44 44 44 43 41 41
28 30 32 33 35 37 38 40 42 44 45 46 46 46 46 46 46 46 46 45 45 44 44 44 44 44 44 43 43 43 43 44 44 44 44 44 44 44 44 44 43 42 41 40
31 33 34 36 38 40 41 43 45 46 48 48 47 47 47 47 46 45 44 44 44 44 44 44 43 42 42 42 42 42 42 42 42 43 43 44 44 44 43 43 42 41 40 39
33 35 37 39 40 42 44 46 48 49 50 50 49 49 48 48 47 46 45 45 45 44 43 42 42 41 41 41 41 41 40 40 40 40 41 41 42 42 42 41 41 40 40 39
35 37 39 41 43 45 47 49 50 51 51 51 51 50 49 49 48 47 46 45 44 43 41 40 39 39 39 39 39 39 39 39 39 39 40 40 40 40 40 39 38 38 39 39
37 39 42 44 46 49 51 52 53 53 53 53 52 51 50 49 49 47 45 43 42 40 39 38 37 37 38 38 39 39 38 38 38 38 38 39 39 39 39 39 38 37 37 37
40 42 45 47 49 51 53 54 55 54 54 53 53 51 50 49 48 46 43 42 40 39 39 38 37 37 37 36 36 36 37 37 37 37 37 38 38 38 38 38 37 36 35 35
42 45 48 50 52 54 55 56 56 55 54 54 54 52 51 49 47 44 41 40 39 38 37 36 36 36 35 35 34 33 33 34 35 36 36 36 36 37 37 36 36 36 35 35
45 48 50 52 54 56 56 56 56 56 55 55 54 53 51 48 45 43 41 38 36 35 35 35 35 34 33 32 31 30 30 30 32 33 34 35 35 35 35 35 35 35 34 34
47 50 53 55 56 57 57 57 57 56 56 56 55 53 50 47 43 41 38 36 34 34 34 34 33 32 30 29 28 27 27 27 28 30 32 33 34 34 34 34 33 33 33 33
50 52 55 56 58 58 58 58 57 57 57 56 54 52 48 44 41 38 36 34 34 33 32 31 30 29 28 27 26 25 24 24 25 26 28 30 31 32 33 32 32 32 32 32
52 55 57 58 58 58 58 58 58 58 57 56 52 49 45 42 39 37 35 34 33 32 31 30 29 27 26 25 24 23 22 21 22 23 24 26 27 29 30 30 30 31 31 30
Wind_Direction
210 216 214 221 226 230 232 234 237 239 238 240 242 244 244 244 243 243 244 245 247 248 249 250 252 253 254 255 257 258 259 260 260 261 262 264 265 266 267 269 270 270 272 273
221 225 228 237 242 242 240 240 243 246 247 248 248 248 248 249 250 250 249 249 250 250 251 251 252 254 255 256 258 259 260 261 261 261 262 263 264 265 266 267 268 270 271 273
237 239 241 247 252 251 246 244 248 252 252 252 254 254 253 254 255 255 255 254 254 253 254 254 255 255 256 257 258 259 260 260 261 262 262 263 263 264 265 267 268 269 271 272
237 243 243 249 253 255 254 253 254 256 257 257 257 258 258 258 259 259 260 260 259 259 258 258 258 258 258 259 259 259 260 260 261 261 262 263 264 265 265 266 267 269 270 272
245 247 248 258 262 261 261 262 262 261 261 262 263 264 263 264 264 264 265 265 265 264 264 263 262 262 261 261 261 261 261 261 261 261 262 263 263 264 265 266 267 268 270 271
261 260 258 262 267 269 269 268 267 266 266 267 268 269 269 269 269 269 269 269 269 268 268 267 266 264 263 263 263 263 263 262 262 262 262 263 263 264 264 265 266 268 269 271
302 284 275 278 277 279 275 274 272 273 272 273 273 273 273 273 273 273 272 271 271 270 270 269 268 267 266 265 264 264 264 264 264 263 263 263 264 264 264 265 266 267 269 270
335 315 296 297 292 287 286 284 283 281 279 278 277 277 277 276 276 276 275 275 274 273 272 271 270 269 267 266 265 265 264 264 264 263 263 263 263 263 263 264 265 267 268 270
338 327 317 311 305 300 296 294 291 288 285 283 282 282 280 280 279 278 278 277 277 276 274 273 272 270 269 268 266 266 265 264 264 263 262 262 262 262 262 263 263 264 266 268
327 323 320 316 311 308 305 302 299 296 293 290 288 286 285 284 284 282 281 279 278 277 276 275 273 272 270 269 268 266 265 264 263 262 262 261 261 261 262 262 263 263 264 266
321 320 319 316 313 310 307 306 304 302 300 297 294 291 289 288 288 286 284 282 280 279 277 276 275 273 271 270 268 267 265 265 264 263 262 261 260 259 260 261 261 262 263 263
318 318 318 316 314 312 310 309 307 305 303 301 298 295 293 291 290 289 287 285 282 280 278 277 276 274 272 270 269 267 265 264 263 262 260 259 258 258 259 259 260 261 262 262
315 315 315 314 313 313 312 310 309 306 304 303 301 299 297 296 294 293 291 288 284 281 279 278 277 276 274 272 270 267 265 264 262 261 259 258 258 257 257 258 258 259 260 261
313 314 314 314 313 313 312 311 310 308 307 305 304 301 300 299 297 295 294 291 287 284 281 279 278 276 275 273 271 268 266 264 262 261 259 258 257 257 256 257 257 258 259 259
313 314 314 314 314 314 313 313 311 310 309 308 306 304 302 301 299 297 294 292 290 287 284 282 279 277 276 273 271 268 266 264 262 260 258 256 256 255 255 255 255 257 258 258
312 313 314 314 315 315 315 314 313 312 311 309 308 307 305 302 300 298 296 293 291 289 286 284 282 279 277 274 271 268 265 263 261 259 257 256 255 255 254 254 254 255 256 256
312 313 314 314 315 315 315 315 314 314 313 312 311 309 307 305 303 300 298 295 292 290 287 285 283 282 279 276 272 269 266 263 260 258 257 256 254 254 254 254 254 254 254 254
312 313 314 315 316 316 316 316 316 315 315 314 313 311 310 308 305 303 300 297 294 292 289 287 285 283 281 278 275 271 267 264 261 258 256 255 254 253 252 252 252 252 251 252
312 314 315 316 316 317 317 317 318 317 316 316 314 313 311 309 307 305 302 299 296 293 291 288 286 284 281 279 276 273 269 264 260 257 255 253 252 251 250 249 250 250 250 250
313 314 315 316 317 318 318 318 319 318 317 316 315 314 313 311 309 306 304 301 299 297 295 292 288 285 282 279 276 273 268 264 259 255 253 251 250 249 248 247 247 248 249 249
313 314 316 317 318 318 319 319 320 319 318 317 316 315 314 313 311 308 305 302 300 299 297 294 291 288 285 281 277 273 268 263 258 254 251 249 248 247 246 245 245 246 247 248
314 315 317 318 319 319 320 321 321 320 319 319 318 316 315 314 312 310 307 304 302 300 298 296 294 291 288 284 280 275 269 263 257 253 250 248 246 245 244 244 244 245 245 246
314 316 317 318 319 320 321 321 321 321 320 320 319 317 316 315 313 311 308 305 303 302 301 299 296 293 290 287 283 277 270 263 256 252 248 246 245 243 242 242 243 243 244 246
315 316 318 319 320 321 322 322 322 321 321 321 320 318 316 315 313 311 309 307 304 303 302 300 299 295 292 289 284 278 271 264 256 250 246 244 242 241 241 241 241 242 243 245
316 317 319 320 321 322 323 323 322 322 322 322 321 319 317 315 313 312 310 308 307 305 304 302 301 298 293 289 284 278 272 264 256 249 245 242 240 240 239 239 240 242 243 244
317 318 319 320 321 322 323 323 323 323 322 322 321 319 316 315 313 313 311 310 308 307 306 304 303 300 296 291 285 279 271 262 254 249 245 241 239 239 238 238 240 241 242 243
318 319 320 321 322 323 323 324 324 324 323 323 322 320 317 314 313 312 311 310 309 307 306 305 303 301 297 292 286 277 268 259 253 248 244 241 238 237 236 237 239 239 239 240
Height
5612 5613 5615 5617 5619 5621 5623 5625 5628 5630 5632 5634 5636 5638 5640 5642 5644 5645 5647 5649 5650 5652 5653 5655 5656 5657 5658 5660 5661 5662 5663 5664 5665 5666 5667 5668 5669 5669 5670 5670 5671 5671 5671 5672
5612 5613 5615 5616 5618 5620 5622 5623 5625 5627 5630 5630 5632 5633 5635 5636 5638 5639 5641 5642 5643 5644 5644 5645 5646 5647 5648 5649 5650 5651 5652 5653 5654 5655 5656 5656 5657 5658 5658 5659 5659 5660 5660 5660
5612 5612 5614 5616 5617 5618 5620 5621 5623 5625 5627 5627 5628 5629 5630 5631 5632 5633 5633 5634 5634 5635 5635 5636 5636 5637 5638 5638 5639 5640 5640 5641 5642 5643 5644 5644 5645 5646 5647 5647 5648 5648 5648 5648
5611 5613 5613 5617 5615 5616 5617 5619 5620 5621 5621 5622 5623 5624 5625 5625 5625 5625 5625 5625 5625 5625 5625 5625 5626 5626 5627 5627 5628 5628 5629 5629 5630 5631 5632 5633 5633 5634 5635 5635 5636 5636 5637 5637
5610 5611 5612 5613 5613 5613 5614 5616 5616 5616 5617 5617 5617 5618 5618 5617 5617 5617 5616 5616 5615 5615 5615 5614 5614 5614 5615 5615 5615 5616 5616 5617 5618 5618 5619 5620 5621 5621 5622 5623 5623 5624 5624 5625
5609 5609 5610 5612 5611 5610 5612 5612 5612 5611 5611 5611 5611 5611 5611 5610 5609 5608 5607 5606 5605 5604 5603 5603 5602 5602 5602 5602 5602 5603 5603 5604 5604 5605 5606 5607 5608 5608 5609 5610 5611 5611 5612 5612
5607 5607 5608 5609 5608 5608 5609 5609 5607 5606 5605 5605 5604 5604 5603 5601 5599 5598 5596 5595 5594 5593 5592 5591 5590 5589 5589 5589 5589 5589 5590 5590 5591 5591 5592 5593 5594 5595 5596 5597 5598 5599 5599 5599
5606 5606 5608 5606 5605 5605 5605 5602 5602 5600 5599 5598 5597 5595 5594 5592 5589 5587 5586 5584 5582 5581 5579 5578 5577 5576 5576 5575 5575 5575 5576 5576 5577 5577 5578 5579 5580 5581 5583 5584 5585 5586 5586 5587
5606 5607 5604 5603 5602 5601 5599 5598 5596 5594 5593 5591 5589 5587 5585 5582 5579 5577 5575 5572 5570 5568 5566 5564 5563 5562 5562 5561 5561 5561 5562 5562 5562 5563 5564 5565 5566 5568 5569 5570 5572 5572 5573 5574
5604 5603 5601 5600 5598 5597 5595 5593 5591 5588 5586 5583 5580 5578 5575 5572 5569 5566 5563 5560 5557 5555 5553 5551 5549 5548 5547 5547 5546 5547 5547 5547 5548 5549 5550 5551 5552 5554 5555 5557 5558 5559 5561 5561
5601 5600 5598 5596 5594 5592 5590 5587 5584 5581 5578 5575 5571 5568 5565 5561 5557 5554 5550 5547 5544 5542 5539 5537 5535 5533 5532 5531 5531 5532 5532 5533 5534 5534 5536 5537 5538 5540 5542 5543 5544 5546 5548 5549
5599 5597 5595 5593 5590 5587 5584 5581 5578 5574 5570 5566 5562 5558 5554 5549 5545 5541 5537 5534 5530 5527 5525 5522 5520 5519 5517 5516 5516 5516 5517 5518 5519 5520 5521 5523 5524 5526 5527 5529 5531 5533 5534 5536
5595 5593 5590 5588 5585 5581 5578 5574 5570 5566 5562 5557 5552 5547 5542 5538 5533 5528 5524 5519 5515 5512 5510 5507 5505 5503 5502 5501 5501 5501 5501 5502 5503 5505 5506 5508 5510 5512 5514 5516 5517 5519 5521 5522
5590 5588 5585 5582 5579 5575 5571 5567 5562 5557 5552 5547 5542 5536 5531 5526 5520 5515 5510 5504 5500 5497 5494 5492 5490 5488 5486 5485 5485 5485 5485 5486 5487 5489 5491 5493 5495 5497 5499 5502 5504 5506 5508 5509
5585 5582 5579 5576 5572 5568 5563 5559 5553 5548 5542 5536 5530 5524 5518 5513 5507 5502 5496 5490 5486 5482 5479 5476 5473 5471 5470 5469 5468 5469 5469 5470 5471 5473 5475 5477 5480 5482 5485 5487 5490 5493 5495 5497
5579 5576 5573 5569 5565 5560 5555 5550 5544 5538 5531 5525 5518 5512 5505 5499 5493 5487 5482 5476 5472 5468 5464 5460 5458 5455 5453 5452 5452 5452 5452 5453 5455 5457 5459 5462 5464 5467 5470 5473 5476 5479 5481 5483
5573 5570 5566 5561 5557 5551 5546 5540 5534 5527 5520 5513 5506 5499 5492 5485 5479 5473 5468 5462 5457 5453 5449 5445 5442 5440 5437 5436 5435 5435 5436 5437 5438 5440 5443 5446 5449 5452 5455 5458 5461 5464 5467 5470
5567 5563 5558 5554 5548 5543 5537 5530 5523 5516 5509 5501 5493 5486 5479 5472 5466 5459 5454 5448 5443 5438 5433 5430 5427 5424 5422 5420 5420 5419 5420 5421 5422 5424 5427 5430 5433 5436 5440 5443 5447 5450 5454 5456
5559 5555 5550 5545 5539 5533 5527 5519 5512 5504 5496 5488 5481 5473 5466 5458 5451 5445 5439 5433 5428 5423 5419 5415 5412 5409 5407 5405 5404 5404 5404 5405 5407 5409 5411 5415 5418 5422 5425 5429 5433 5437 5440 5443
5552 5547 5542 5536 5530 5523 5516 5508 5500 5492 5484 5476 5468 5460 5452 5445 5437 5431 5425 5419 5413 5408 5405 5401 5398 5395 5393 5391 5390 5389 5389 5390 5392 5394 5397 5400 5404 5408 5412 5416 5419 5423 5427 5430
5544 5539 5533 5527 5520 5512 5505 5497 5488 5480 5471 5463 5455 5447 5439 5431 5423 5416 5410 5405 5399 5394 5391 5387 5384 5381 5379 5377 5376 5375 5375 5376 5377 5380 5383 5387 5390 5394 5399 5403 5407 5411 5414 5418
5535 5530 5523 5517 5509 5501 5493 5484 5476 5467 5459 5450 5441 5433 5426 5418 5410 5403 5397 5391 5387 5382 5378 5374 5371 5368 5365 5363 5362 5361 5361 5362 5364 5366 5370 5373 5377 5382 5386 5390 5394 5398 5402 5406
5526 5520 5514 5506 5499 5490 5481 5472 5464 5455 5446 5437 5429 5420 5412 5405 5397 5391 5385 5379 5374 5370 5366 5362 5359 5355 5353 5351 5349 5348 5348 5349 5350 5353 5357 5361 5365 5369 5374 5378 5383 5387 5391 5394
5517 5510 5503 5496 5488 5479 5470 5461 5451 5442 5433 5424 5416 5407 5399 5392 5385 5378 5372 5368 5363 5359 5355 5351 5347 5343 5341 5339 5337 5336 5336 5337 5338 5341 5345 5349 5353 5358 5363 5367 5371 5375 5379 5383
5507 5500 5493 5485 5476 5467 5458 5449 5440 5430 5421 5412 5403 5394 5386 5379 5373 5367 5361 5357 5352 5348 5344 5340 5336 5333 5330 5328 5326 5325 5325 5326 5328 5330 5334 5338 5343 5347 5352 5356 5361 5365 5369 5372
5497 5490 5481 5473 5465 5455 5446 5437 5428 5419 5409 5400 5391 5382 5374 5367 5361 5356 5351 5347 5342 5338 5334 5330 5326 5323 5320 5318 5317 5316 5316 5317 5318 5321 5324 5328 5333 5337 5342 5346 5350 5354 5358 5362
5486 5478 5470 5461 5452 5443 5434 5425 5416 5406 5397 5388 5380 5371 5363 5357 5351 5346 5341 5337 5332 5328 5324 5321 5318 5314 5312 5310 5308 5308 5308 5309 5311 5313 5316 5320 5323 5328 5332 5337 5341 5345 5348 5352